TimeHST,TemperatureF,Dew PointF,Humidity,Sea Level PressureIn,VisibilityMPH,Wind Direction,Wind SpeedMPH,Gust SpeedMPH,PrecipitationIn,Events,Conditions,WindDirDegrees,DateUTC
12:53 AM,72.0,60.1,66,30.20,10.0,NE,10.4,-,N/A,,Mostly Cloudy,50,2013-02-12 10:53:00
1:53 AM,71.1,57.9,63,30.19,10.0,ENE,11.5,-,N/A,,Scattered Clouds,60,2013-02-12 11:53:00
2:53 AM,71.1,57.0,61,30.17,10.0,NE,10.4,-,N/A,,Scattered Clouds,50,2013-02-12 12:53:00
3:53 AM,71.1,57.0,61,30.17,10.0,NE,8.1,-,N/A,,Mostly Cloudy,40,2013-02-12 13:53:00
4:53 AM,69.1,53.1,57,30.17,10.0,NNE,8.1,-,N/A,,Scattered Clouds,20,2013-02-12 14:53:00
5:53 AM,68.0,53.1,59,30.16,10.0,Calm,Calm,-,N/A,,Scattered Clouds,0,2013-02-12 15:53:00
6:53 AM,70.0,57.9,65,30.18,10.0,NE,10.4,-,N/A,,Overcast,50,2013-02-12 16:53:00
7:53 AM,71.1,59.0,66,30.19,10.0,ENE,9.2,-,N/A,,Mostly Cloudy,60,2013-02-12 17:53:00
8:53 AM,71.1,60.1,68,30.20,10.0,ENE,12.7,23.0,N/A,,Mostly Cloudy,60,2013-02-12 18:53:00
9:53 AM,73.0,59.0,61,30.19,10.0,ENE,16.1,23.0,N/A,,Mostly Cloudy,60,2013-02-12 19:53:00
10:53 AM,75.9,57.0,52,30.19,10.0,NE,13.8,20.7,N/A,,Scattered Clouds,40,2013-02-12 20:53:00
11:53 AM,75.9,57.9,54,30.17,10.0,NE,13.8,21.9,N/A,,Mostly Cloudy,40,2013-02-12 21:53:00
12:53 PM,77.0,57.0,50,30.15,10.0,NNE,16.1,21.9,N/A,,Mostly Cloudy,30,2013-02-12 22:53:00
1:53 PM,75.0,57.9,55,30.13,10.0,NE,16.1,-,N/A,,Mostly Cloudy,40,2013-02-12 23:53:00
2:53 PM,72.0,61.0,68,30.12,10.0,ENE,13.8,-,0.00,,Mostly Cloudy,70,2013-02-13 00:53:00
3:53 PM,73.0,60.1,64,30.12,10.0,NE,9.2,-,0.00,,Mostly Cloudy,40,2013-02-13 01:53:00
4:53 PM,73.0,59.0,61,30.10,10.0,NE,11.5,-,N/A,,Mostly Cloudy,40,2013-02-13 02:53:00
5:53 PM,72.0,59.0,64,30.12,10.0,NNE,12.7,-,0.00,Rain,Light Rain,30,2013-02-13 03:53:00
6:53 PM,72.0,57.9,61,30.12,10.0,NE,11.5,-,0.00,,Scattered Clouds,50,2013-02-13 04:53:00
7:53 PM,72.0,59.0,64,30.14,10.0,NE,11.5,-,N/A,,Scattered Clouds,50,2013-02-13 05:53:00
8:53 PM,71.1,57.0,61,30.15,10.0,NNE,8.1,-,N/A,,Scattered Clouds,30,2013-02-13 06:53:00
9:53 PM,71.1,55.0,57,30.16,10.0,NE,12.7,19.6,N/A,,Scattered Clouds,50,2013-02-13 07:53:00
10:53 PM,70.0,54.0,57,30.16,10.0,ENE,11.5,-,N/A,,Scattered Clouds,60,2013-02-13 08:53:00
11:53 PM,70.0,54.0,57,30.16,10.0,ENE,6.9,-,N/A,,Mostly Cloudy,70,2013-02-13 09:53:00